Voltar ao catálogo

BUZZZER-1

AtivoComunicaçõesSSO
NORAD 62609·PAYLOAD·🇫🇷 France

Lançado Jan 14, 2025 de Vandenberg Space Force Base

Loading…

Próximas Passagens (próximas 24 horas)

TLE

AtualizadoSource: Space-Track

Época: Sep 14, 2026, 11:14 UTC

1 62609U 25009A   26257.46831306  .00002193  00000-0  98422-4 0  9996
2 62609  97.3863 334.1556 0008251  32.4927 327.6815 15.22215033 92277

Acompanhe BUZZZER-1 em tempo real com AllMySat

Download on the App Store